Regional Weather Roundup
Issued by NWS

Home | Current Version | Previous Version | Text Only | Print | Product List | Glossary On
Versions: 1 2 3 4 5 6 7 8 9 10 11 12 13 14 15 16 17 18 19 20 21 22 23 24 25 26 27 28 29 30 31 32 33 34 35 36 37 38 39 40 41 42 43 44 45 46 47 48 49 50
000
ASUS43 KDTX 160810
RWRMI
MICHIGAN HOURLY REGIONAL WEATHER ROUNDUP
NATIONAL WEATHER SERVICE DETROIT/PONTIAC MI
400 AM EDT TUE SEP 16 2014

NOTE: "FAIR" INDICATES FEW OR NO CLOUDS BELOW 12,000 FEET WITH NO
SIGNIFICANT WEATHER AND/OR OBSTRUCTION TO VISIBILITY.

MIZ047>049-052>055-059>063-066>070-074>076-081>083-160900-
SOUTHEAST LOWER MICHIGAN

CITY           SKY/WX    TMP DP  RH WIND       PRES   REMARKS
ADRIAN         CLOUDY    53  51  93 N5        30.14R
ALMA           FOG       45  44  97 CALM      30.14S VSB 1/2
ANN ARBOR      CLOUDY    53  48  83 NW6       30.12S
BAD AXE        FOG       43  43 100 CALM      30.11S VSB 1/2
DETROIT CITY   PTCLDY    55  50  83 CALM      30.11F
DETROIT        CLOUDY    54  51  90 W5        30.12S
FLINT          MOCLDY    52  49  89 NW6       30.14R
GROSSE ILE     CLOUDY    54  52  94 NW3       30.10S
HILLSDALE      CLOUDY    52  52 100 CALM      30.14R
HOWELL         CLOUDY    51  51  97 W3        30.13S

CITY           SKY/WX    TMP DP  RH WIND       PRES   REMARKS
JACKSON        CLOUDY    51  50  96 CALM      30.14R
LAMBERTVILLE   CLOUDY    54  50  87 NW3       30.13S FOG
LANSING        CLOUDY    50  48  93 NW3       30.14S FOG
LAPEER         NOT AVBL
MASON          CLOUDY    51  50  96 CALM      30.14R
MONROE         CLOUDY    52  50  93 CALM      30.11R FOG
MT. CLEMENS    PTCLDY    51  49  92 NW6       30.10R
PONTIAC        CLEAR     50  48  93 NW6       30.11S
PORT HOPE        N/A     51  47  86 CALM      30.09R
PORT HURON     CLEAR     48  48 100 CALM      30.11R
TRI CITIES     PTCLDY    47  45  93 CALM      30.13F
YPSILANTI      CLOUDY    56  50  80 NW6       30.13R
$$
MIZ043>046-050>051-056>058-064>065-071>073-077>080-160900-
SOUTHWEST LOWER MICHIGAN

CITY           SKY/WX    TMP DP  RH WIND       PRES   REMARKS
BATTLE CREEK   CLOUDY    52  49  89 NW5       30.15S
BENTON HARBOR  MOCLDY    49  48  97 CALM      30.17R
BIG RAPIDS     FOG       40  40 100 CALM      30.14S VSB 1/4
COLDWATER      CLOUDY    52  51  95 W3        30.15R
HOLLAND        FOG       43  41  93 CALM      30.17R VSB 1
GRAND RAPIDS   FOG       48  48 100 NW3       30.16R VSB 1/4
KALAMAZOO      MOCLDY    51  48  89 NW6       30.17R
MARSHALL       CLOUDY    51  50  95 CALM      30.14S
MUSKEGON       PTCLDY    42  40  92 CALM      30.16S FOG
$$
MIZ016>042-160900-
NORTHERN LOWER MICHIGAN

CITY           SKY/WX    TMP DP  RH WIND       PRES   REMARKS
ALPENA         CLEAR     41  40  96 CALM      30.11R
BEAVER ISLAND  PTCLDY    52  42  69 W5        30.12S
BELLAIRE       CLOUDY    46  45  95 CALM      30.13S
CADILLAC       FOG       36  36 100 CALM      30.12S VSB 1/4
CHARLEVOIX     MOCLDY    54  45  71 NW5       30.14F
FRANKFORT      SUNNY     43  40  90 CALM      30.13R
GAYLORD        MOCLDY    40  38  93 W3        30.12R
GRAYLING       FOG       43  43 100 CALM      30.13S VSB 1/2
HARBOR SPRINGS MOCLDY    49  47  92 CALM      30.11S
HOUGHTON LAKE  FOG       39  39 100 CALM      30.13S VSB 1/4
MANISTEE       CLOUDY    39  37  93 E3        30.14S VSB 1/2
OSCODA         CLEAR     43  43  99 CALM      30.11R
PELLSTON       MOCLDY    45  44  97 W5        30.11S
TRAVERSE CITY  PTCLDY    48  45  89 CALM      30.11S
$$
MIZ007>008-015-160900-
EASTERN UPPER MICHIGAN

CITY           SKY/WX    TMP DP  RH WIND       PRES   REMARKS
KINROSS        CLEAR     41  41 100 W6        30.09S
MACKINAC ISLAN CLEAR     49  44  81 NW7       30.10S
NEWBERRY       CLEAR     41  40  98 W5        30.09F
S. S. MARIE    CLEAR     45  42  89 SW5       30.08S
$$
MIZ004>006-011>014-085-160900-
CENTRAL UPPER MICHIGAN

CITY           SKY/WX    TMP DP  RH WIND       PRES   REMARKS
MANISTIQUE     CLEAR     41  40  97 W3        30.11S
ESCANABA       CLEAR     41  37  87 W6        30.13S
MENOMINEE      CLEAR     41  37  87 CALM      30.15S
SAWYER-GWINN   PTCLDY    38  35  89 W5        30.11S
$$
MIZ001>003-009>011-084-160900-
WESTERN UPPER MICHIGAN

CITY           SKY/WX    TMP DP  RH WIND       PRES   REMARKS
IRON MOUNTAIN  CLEAR     38  34  85 CALM      30.13S
HOUGHTON       PTCLDY    47  39  74 W13       30.07F
COPPER HARBOR    N/A     52  37  56 W9G17     30.05F
IRONWOOD       CLEAR     39  36  87 SW7       30.11F
$$

ABBREVIATIONS USED IN REMARKS
   TC - TEMPERATURE IN CELSIUS
  WCI - WIND CHILL INDEX
   HX - HEAT INDEX
  VSB - VISIBILITY




USA.gov is the U.S. government's official web portal to all federal, state and local government web resources and services.